Weather History for McGregor, MN

Change the Weather History Date:

Wednesday, October 9, 2013

  Actual Average (KAIT) Record (KAIT)
Temperature  
Mean Temperature 60 °F -  
Max Temperature 69 °F 58 °F 78 °F (1960)
Min Temperature 51 °F 34 °F 17 °F (2000)
Degree Days  
Heating Degree Days 5    
Growing Degree Days 10 (Base 50)    
Moisture  
Dew Point 49 °F    
Average Humidity 67    
Maximum Humidity 94    
Minimum Humidity 52    
Precipitation  
Precipitation 0.00 in - - ()
Sea Level Pressure  
Sea Level Pressure 29.97 in    
Wind  
Wind Speed 8 mph (SSW)    
Max Wind Speed 13 mph    
Max Gust Speed 21 mph    
Visibility 10 miles    
Events      
Averages and records for this station are not official NWS values.
T = Trace of Precipitation, MM = Missing Value Source: NWS Daily Summary

Daily Weather History Graph

Daily Weather History Graph

Search for Another Location

Airport:

Trip Planner

Search our weather history database for the weather conditions in past years. The results will help you decide how hot, cold, wet, or windy it might be!

Date:

Astronomy

Oct. 09, 2013 Rise Set
Actual Time 7:22 AM CDT 6:37 PM CDT
Civil Twilight 6:52 AM CDT 7:07 PM CDT
Nautical Twilight 6:17 AM CDT 7:42 PM CDT
Astronomical Twilight 5:42 AM CDT 8:17 PM CDT
Moon 12:33 PM CDT (10/9) 9:57 PM CDT (10/9)
Length of Visible Light 12h 14m
Length of Day
11h 14m
Waxing Crescent, 25% of the Moon is Illuminated
Oct 9
Waxing Crescent
Oct 11
First Quarter
Oct 18
Full
Oct 26
Last Quarter
Nov 3
New

Hourly Weather History & Observations

Time (CDT) Temp. Dew Point Humidity Pressure Visibility Wind Dir Wind Speed Gust Speed Precip Events Conditions
12:11 AM 62.6 °F 44.6 °F 52% 29.85 in 10.0 mi South 10.4 mph - N/A   Clear
12:33 AM 60.8 °F 44.6 °F 55% 29.86 in 10.0 mi South 9.2 mph - N/A   Clear
12:53 AM 60.8 °F 44.6 °F 55% 29.87 in 10.0 mi South 10.4 mph - N/A   Clear
1:12 AM 60.8 °F 46.4 °F 59% 29.87 in 10.0 mi South 10.4 mph - N/A   Clear
1:32 AM 60.8 °F 46.4 °F 59% 29.87 in 10.0 mi South 10.4 mph 16.1 mph N/A   Clear
1:52 AM 60.8 °F 46.4 °F 59% 29.88 in 10.0 mi South 11.5 mph 17.3 mph N/A   Clear
2:12 AM 62.6 °F 46.4 °F 55% 29.89 in 10.0 mi South 11.5 mph 17.3 mph N/A   Clear
2:31 AM 60.8 °F 46.4 °F 59% 29.89 in 10.0 mi SSW 11.5 mph 20.7 mph N/A   Clear
2:52 AM 60.8 °F 46.4 °F 59% 29.90 in 10.0 mi SSW 9.2 mph 17.3 mph N/A   Clear
3:12 AM 60.8 °F 46.4 °F 59% 29.90 in 10.0 mi SSW 12.7 mph 17.3 mph N/A   Clear
3:32 AM 59.0 °F 46.4 °F 63% 29.90 in 10.0 mi South 9.2 mph - N/A   Clear
3:53 AM 59.0 °F 46.4 °F 63% 29.91 in 10.0 mi South 6.9 mph - N/A   Clear
4:12 AM 59.0 °F 46.4 °F 63% 29.91 in 10.0 mi South 6.9 mph - N/A   Clear
4:33 AM 57.2 °F 46.4 °F 67% 29.92 in 10.0 mi South 6.9 mph - N/A   Clear
4:52 AM 57.2 °F 46.4 °F 67% 29.92 in 10.0 mi South 6.9 mph - N/A   Clear
5:13 AM 55.4 °F 46.4 °F 72% 29.92 in 10.0 mi South 6.9 mph - N/A   Clear
5:32 AM 55.4 °F 46.4 °F 72% 29.92 in 10.0 mi South 5.8 mph - N/A   Clear
5:53 AM 55.4 °F 46.4 °F 72% 29.93 in 10.0 mi South 6.9 mph - N/A   Clear
6:12 AM 55.4 °F 46.4 °F 72% 29.93 in 10.0 mi South 5.8 mph - N/A   Clear
6:32 AM 53.6 °F 46.4 °F 77% 29.93 in 10.0 mi South 5.8 mph - N/A   Clear
6:52 AM 53.6 °F 46.4 °F 77% 29.93 in 10.0 mi South 5.8 mph - N/A   Clear
7:12 AM 53.6 °F 46.4 °F 77% 29.94 in 10.0 mi South 5.8 mph - N/A   Clear
7:32 AM 53.6 °F 46.4 °F 77% 29.94 in 10.0 mi South 6.9 mph - N/A   Clear
7:50 AM 53.6 °F 46.4 °F 77% 29.95 in 10.0 mi South 6.9 mph - N/A   Clear
8:12 AM 53.6 °F 46.4 °F 77% 29.96 in 10.0 mi South 6.9 mph - N/A   Clear
8:33 AM 55.4 °F 46.4 °F 72% 29.96 in 10.0 mi South 8.1 mph - N/A   Clear
8:52 AM 55.4 °F 46.4 °F 72% 29.97 in 10.0 mi South 8.1 mph - N/A   Clear
9:12 AM 57.2 °F 48.2 °F 72% 29.98 in 10.0 mi SSW 9.2 mph 16.1 mph N/A   Clear
9:33 AM 59.0 °F 48.2 °F 67% 29.98 in 10.0 mi South 10.4 mph 17.3 mph N/A   Clear
9:52 AM 60.8 °F 50.0 °F 68% 29.99 in 10.0 mi SSW 9.2 mph - N/A   Clear
10:11 AM 60.8 °F 50.0 °F 68% 29.99 in 10.0 mi SSW 10.4 mph - N/A   Clear
10:33 AM 62.6 °F 50.0 °F 63% 29.99 in 10.0 mi SSW 12.7 mph 16.1 mph N/A   Clear
11:13 AM 62.6 °F 50.0 °F 63% 29.99 in 10.0 mi South 9.2 mph - N/A   Clear
11:33 AM 62.6 °F 50.0 °F 63% 29.99 in 10.0 mi SW 6.9 mph - N/A   Clear
11:53 AM 64.4 °F 50.0 °F 59% 30.00 in 10.0 mi SSW 8.1 mph - N/A   Clear
12:12 PM 64.4 °F 50.0 °F 59% 30.00 in 10.0 mi SSW 6.9 mph - N/A   Clear
12:32 PM 64.4 °F 50.0 °F 59% 30.01 in 10.0 mi South 6.9 mph - N/A   Clear
12:53 PM 64.4 °F 50.0 °F 59% 30.01 in 10.0 mi South 9.2 mph - N/A   Clear
1:13 PM 66.2 °F 50.0 °F 56% 30.00 in 10.0 mi South 8.1 mph - N/A   Clear
1:27 PM 66.2 °F 50.0 °F 56% 30.00 in 10.0 mi SW 9.2 mph - N/A   Clear
1:52 PM 68.0 °F 50.0 °F 52% 30.00 in 10.0 mi SSW 9.2 mph - N/A   Clear
2:12 PM 68.0 °F 50.0 °F 52% 30.00 in 10.0 mi SW 5.8 mph - N/A   Clear
2:32 PM 68.0 °F 50.0 °F 52% 30.00 in 10.0 mi SW 5.8 mph - N/A   Clear
2:52 PM 69.8 °F 51.8 °F 53% 29.99 in 10.0 mi SSW 8.1 mph - N/A   Clear
3:13 PM 69.8 °F 51.8 °F 53% 29.99 in 10.0 mi South 4.6 mph - N/A   Clear
3:31 PM 69.8 °F 51.8 °F 53% 29.99 in 10.0 mi West 6.9 mph - N/A   Clear
3:53 PM 69.8 °F 51.8 °F 53% 30.00 in 10.0 mi SW 5.8 mph - N/A   Clear
4:13 PM 69.8 °F 51.8 °F 53% 30.00 in 10.0 mi SW 5.8 mph - N/A   Clear
4:32 PM 69.8 °F 51.8 °F 53% 30.00 in 10.0 mi WSW 4.6 mph - N/A   Clear
4:51 PM 69.8 °F 51.8 °F 53% 30.00 in 10.0 mi SW 4.6 mph - N/A   Clear
5:10 PM 69.8 °F 51.8 °F 53% 30.00 in 10.0 mi SW 6.9 mph - N/A   Clear
5:33 PM 69.8 °F 51.8 °F 53% 30.00 in 10.0 mi SSW 3.5 mph - N/A   Clear
5:52 PM 68.0 °F 51.8 °F 56% 30.01 in 10.0 mi WSW 3.5 mph - N/A   Clear
6:10 PM 66.2 °F 51.8 °F 60% 30.01 in 7.0 mi Calm Calm - N/A   Clear
6:32 PM 62.6 °F 51.8 °F 68% 30.01 in 10.0 mi Calm Calm - N/A   Clear
6:52 PM 59.0 °F 51.8 °F 77% 30.01 in 10.0 mi SE 3.5 mph - N/A   Clear
7:12 PM 59.0 °F 51.8 °F 77% 30.01 in 10.0 mi Calm Calm - N/A   Clear
7:32 PM 57.2 °F 51.8 °F 82% 30.01 in 10.0 mi Calm Calm - N/A   Clear
7:51 PM 55.4 °F 51.8 °F 88% 30.01 in 10.0 mi Calm Calm - N/A   Clear
8:13 PM 53.6 °F 50.0 °F 88% 30.02 in 10.0 mi Calm Calm - N/A   Clear
8:33 PM 53.6 °F 51.8 °F 94% 30.02 in 10.0 mi Calm Calm - N/A   Clear
8:53 PM 53.6 °F 50.0 °F 88% 30.02 in 10.0 mi Calm Calm - N/A   Clear
9:13 PM 51.8 °F 50.0 °F 94% 30.02 in 10.0 mi Calm Calm - N/A   Clear
9:33 PM 51.8 °F 50.0 °F 94% 30.02 in 10.0 mi Calm Calm - N/A   Clear
9:52 PM 53.6 °F 50.0 °F 88% 30.02 in 10.0 mi Calm Calm - N/A   Clear
10:12 PM 53.6 °F 50.0 °F 88% 30.03 in 10.0 mi SSE 3.5 mph - N/A   Clear
10:32 PM 53.6 °F 50.0 °F 88% 30.03 in 10.0 mi South 3.5 mph - N/A   Clear
10:53 PM 55.4 °F 50.0 °F 82% 30.03 in 10.0 mi SSE 5.8 mph - N/A   Clear
11:12 PM 57.2 °F 50.0 °F 77% 30.03 in 10.0 mi South 5.8 mph - N/A   Clear
11:32 PM 55.4 °F 50.0 °F 82% 30.04 in 10.0 mi SSE 5.8 mph - N/A   Clear
11:50 PM 55.4 °F 50.0 °F 82% 30.04 in 10.0 mi SSE 6.9 mph - N/A   Clear